Clinton, OK

5:25 AM CDT on April 24, 2017 (GMT -0500)
Clinton Municipal

Weather History for KCLK - March, 2013

Change the Weather History Date:

Friday, March 29, 2013

  Actual Average (KCSM) Record (KCSM)
Temperature  
Mean Temperature 61 °F -  
Max Temperature 71 °F 63 °F 80 °F (2015)
Min Temperature 51 °F 41 °F 30 °F (2003)
Degree Days  
Heating Degree Days 4    
Growing Degree Days 11 (Base 50)    
Moisture  
Dew Point 52 °F    
Average Humidity 74    
Maximum Humidity 94    
Minimum Humidity 50    
Precipitation  
Precipitation 0.00 in - - ()
Sea Level Pressure  
Sea Level Pressure 30.04 in    
Wind  
Wind Speed 9 mph (SE)    
Max Wind Speed 14 mph    
Max Gust Speed 17 mph    
Visibility 9 miles    
Events      
Averages and records for this station are not official NWS values.
T = Trace of Precipitation, MM = Missing Value Source: NWS Daily Summary

Daily Weather History Graph

Daily Weather History Graph

Search for Another Location

Airport or City:

Trip Planner

Search our weather history database for the weather conditions in past years. The results will help you decide how hot, cold, wet, or windy it might be!

Date:

Astronomy

Mar. 29, 2013 Rise Set
Actual Time 7:26 AM CDT 7:55 PM CDT
Civil Twilight 7:00 AM CDT 8:20 PM CDT
Nautical Twilight 6:30 AM CDT 8:50 PM CDT
Astronomical Twilight 5:59 AM CDT 9:21 PM CDT
Moon 10:49 PM CDT (3/29) 8:42 AM CDT (3/29)
Length of Visible Light 13h 20m
Length of Day
12h 29m
Waning Gibbous, 93% of the Moon is Illuminated
Mar 29
Waning Gibbous
Apr 2
Last Quarter
Apr 10
New
Apr 18
First Quarter
Apr 25
Full

Hourly Weather History & Observations

Time (CDT) Temp. Dew Point Humidity Pressure Visibility Wind Dir Wind Speed Gust Speed Precip Events Conditions
12:15 AM 57.2 °F 48.2 °F 72% 30.07 in 10.0 mi SE 12.7 mph - N/A   Clear
12:35 AM 57.2 °F 48.2 °F 72% 30.07 in 10.0 mi SE 13.8 mph - N/A   Clear
12:55 AM 57.2 °F 50.0 °F 77% 30.07 in 10.0 mi SE 12.7 mph - N/A   Clear
1:15 AM 55.4 °F 50.0 °F 82% 30.07 in 10.0 mi ESE 11.5 mph - N/A   Clear
1:55 AM 55.4 °F 50.0 °F 82% 30.06 in 10.0 mi ESE 11.5 mph 16.1 mph N/A   Clear
2:15 AM 55.4 °F 50.0 °F 82% 30.06 in 10.0 mi ESE 9.2 mph - N/A   Clear
2:35 AM 55.4 °F 50.0 °F 82% 30.06 in 10.0 mi ESE 11.5 mph - N/A   Clear
2:55 AM 55.4 °F 50.0 °F 82% 30.06 in 10.0 mi ESE 11.5 mph - N/A   Clear
3:15 AM 55.4 °F 50.0 °F 82% 30.05 in 10.0 mi SE 11.5 mph - N/A   Clear
3:35 AM 53.6 °F 50.0 °F 88% 30.06 in 10.0 mi SE 8.1 mph - N/A   Clear
4:15 AM 53.6 °F 50.0 °F 88% 30.04 in 7.0 mi ESE 9.2 mph - N/A   Clear
4:35 AM 53.6 °F 50.0 °F 88% 30.04 in 7.0 mi ESE 6.9 mph - N/A   Clear
4:55 AM 53.6 °F 50.0 °F 88% 30.04 in 7.0 mi ESE 6.9 mph - N/A   Clear
5:15 AM 51.8 °F 50.0 °F 94% 30.04 in 7.0 mi ESE 6.9 mph - N/A   Clear
5:35 AM 51.8 °F 50.0 °F 94% 30.04 in 7.0 mi ESE 6.9 mph - N/A   Clear
5:55 AM 51.8 °F 50.0 °F 94% 30.04 in 7.0 mi ESE 6.9 mph - N/A   Clear
6:15 AM 51.8 °F 50.0 °F 94% 30.04 in 5.0 mi ESE 6.9 mph - N/A   Clear
6:35 AM 51.8 °F 50.0 °F 94% 30.04 in 5.0 mi ESE 6.9 mph - N/A   Clear
6:55 AM 51.8 °F 50.0 °F 94% 30.04 in 5.0 mi ESE 6.9 mph - N/A   Clear
7:15 AM 51.8 °F 50.0 °F 94% 30.05 in 7.0 mi ESE 6.9 mph - N/A   Clear
7:35 AM 51.8 °F 50.0 °F 94% 30.05 in 7.0 mi ESE 5.8 mph - N/A   Clear
7:55 AM 51.8 °F 50.0 °F 94% 30.06 in 5.0 mi ESE 5.8 mph - N/A   Clear
8:15 AM 51.8 °F 50.0 °F 94% 30.07 in 4.0 mi ESE 5.8 mph - N/A   Mostly Cloudy
8:35 AM 53.6 °F 50.0 °F 88% 30.07 in 4.0 mi ESE 6.9 mph - N/A   Scattered Clouds
8:55 AM 53.6 °F 51.8 °F 94% 30.08 in 5.0 mi ESE 5.8 mph - N/A   Clear
9:15 AM 55.4 °F 51.8 °F 88% 30.07 in 7.0 mi SE 8.1 mph - N/A   Clear
9:35 AM 55.4 °F 51.8 °F 88% 30.08 in 10.0 mi SE 6.9 mph - N/A   Scattered Clouds
9:55 AM 57.2 °F 51.8 °F 82% 30.08 in 10.0 mi SE 8.1 mph - N/A   Mostly Cloudy
10:15 AM 59.0 °F 51.8 °F 77% 30.08 in 10.0 mi SSE 9.2 mph - N/A   Mostly Cloudy
10:35 AM 59.0 °F 53.6 °F 82% 30.08 in 10.0 mi SSE 9.2 mph - N/A   Overcast
10:55 AM 60.8 °F 53.6 °F 77% 30.09 in 10.0 mi South 8.1 mph - N/A   Overcast
11:15 AM 60.8 °F 53.6 °F 77% 30.08 in 10.0 mi South 5.8 mph - N/A   Mostly Cloudy
11:35 AM 62.6 °F 53.6 °F 72% 30.08 in 10.0 mi South 4.6 mph - N/A   Mostly Cloudy
11:55 AM 64.4 °F 53.6 °F 68% 30.08 in 10.0 mi SSE 8.1 mph - N/A   Mostly Cloudy
12:15 PM 66.2 °F 53.6 °F 64% 30.08 in 10.0 mi SSE 8.1 mph - N/A   Mostly Cloudy
12:35 PM 68.0 °F 53.6 °F 60% 30.07 in 10.0 mi ESE 3.5 mph - N/A   Mostly Cloudy
1:15 PM 69.8 °F 53.6 °F 56% 30.06 in 10.0 mi SE 9.2 mph - N/A   Mostly Cloudy
1:35 PM 69.8 °F 51.8 °F 53% 30.05 in 10.0 mi SSE 6.9 mph - N/A   Mostly Cloudy
1:55 PM 69.8 °F 53.6 °F 56% 30.05 in 10.0 mi SSE 9.2 mph - N/A   Mostly Cloudy
2:15 PM 68.0 °F 53.6 °F 60% 30.05 in 10.0 mi South 8.1 mph - N/A   Mostly Cloudy
2:35 PM 69.8 °F 53.6 °F 56% 30.04 in 10.0 mi South 6.9 mph - N/A   Scattered Clouds
3:15 PM 69.8 °F 53.6 °F 56% 30.02 in 10.0 mi SE 9.2 mph - N/A   Scattered Clouds
3:35 PM 69.8 °F 53.6 °F 56% 30.01 in 10.0 mi SE 10.4 mph - N/A   Clear
3:55 PM 71.6 °F 53.6 °F 53% 29.99 in 10.0 mi ESE 12.7 mph 17.3 mph N/A   Clear
4:15 PM 69.8 °F 53.6 °F 56% 30.01 in 10.0 mi SSE 9.2 mph - N/A   Scattered Clouds
4:35 PM 69.8 °F 53.6 °F 56% 30.01 in 10.0 mi South 5.8 mph - N/A   Mostly Cloudy
4:55 PM 71.6 °F 53.6 °F 53% 29.99 in 10.0 mi SE 9.2 mph - N/A   Scattered Clouds
5:15 PM 71.6 °F 53.6 °F 53% 30.00 in 10.0 mi SE 4.6 mph - N/A   Mostly Cloudy
5:35 PM 71.6 °F 51.8 °F 50% 29.99 in 10.0 mi SSE 9.2 mph - N/A   Mostly Cloudy
6:15 PM 69.8 °F 53.6 °F 56% 29.98 in 10.0 mi South 12.7 mph - N/A   Scattered Clouds
6:35 PM 69.8 °F 53.6 °F 56% 29.97 in 10.0 mi SSE 12.7 mph - N/A   Clear
6:55 PM 69.8 °F 53.6 °F 56% 30.00 in 10.0 mi South 9.2 mph - N/A   Clear
7:15 PM 68.0 °F 53.6 °F 60% 29.98 in 10.0 mi South 12.7 mph - N/A   Clear
7:35 PM 68.0 °F 53.6 °F 60% 29.98 in 10.0 mi SSE 5.8 mph - N/A   Clear
7:55 PM 68.0 °F 53.6 °F 60% 29.98 in 10.0 mi SE 11.5 mph - N/A   Clear
8:15 PM 64.4 °F 53.6 °F 68% 29.98 in 10.0 mi ESE 8.1 mph - N/A   Clear
8:35 PM 62.6 °F 53.6 °F 72% 29.99 in 10.0 mi ESE 8.1 mph - N/A   Clear
8:55 PM 60.8 °F 53.6 °F 77% 29.99 in 10.0 mi ESE 8.1 mph - N/A   Clear
9:15 PM 62.6 °F 53.6 °F 72% 30.00 in 10.0 mi East 8.1 mph - N/A   Mostly Cloudy
9:35 PM 62.6 °F 53.6 °F 72% 30.00 in 10.0 mi ESE 11.5 mph - N/A   Mostly Cloudy
9:55 PM 62.6 °F 51.8 °F 68% 30.00 in 10.0 mi East 10.4 mph - N/A   Scattered Clouds
10:15 PM 62.6 °F 51.8 °F 68% 30.00 in 10.0 mi East 10.4 mph - N/A   Clear
10:35 PM 60.8 °F 51.8 °F 72% 30.00 in 10.0 mi East 8.1 mph - N/A   Clear
10:55 PM 60.8 °F 51.8 °F 72% 30.01 in 10.0 mi East 9.2 mph - N/A   Scattered Clouds
11:15 PM 60.8 °F 51.8 °F 72% 30.02 in 10.0 mi ESE 9.2 mph - N/A   Mostly Cloudy
11:35 PM 60.8 °F 51.8 °F 72% 30.02 in 10.0 mi East 8.1 mph - N/A   Mostly Cloudy